Location: Bow
(51.5261°N, 0.0167°W)
Time: 02:17:19
(UTC+00:00)

ATLAS CENTAUR R/B - Visible Passes

Search period start: 23 January 2021 00:00
Search period end: 02 February 2021 00:00
Orbit: 477 x 668 km, 64.7° (Epoch: 12 January)

Date Brightness Start Highest point End Pass type
(mag) Time Alt. Az. Time Alt. Az. Time Alt. Az.
23 Jan 2.7 05:56:48 10° S 06:00:10 35° ESE 06:03:33 10° ENE visible
24 Jan 1.8 05:58:54 10° SSW 06:02:29 52° SE 06:06:04 10° NE visible
25 Jan 1.1 06:01:25 12° SW 06:04:49 78° SE 06:08:31 10° NE visible
26 Jan 3.9 04:28:37 15° ESE 04:28:50 15° ESE 04:30:58 10° E visible
26 Jan 0.9 06:04:50 21° SW 06:07:13 72° NW 06:10:54 10° NE visible
27 Jan 3.6 04:31:44 20° ESE 04:31:44 20° ESE 04:33:54 10° ENE visible
27 Jan 1.2 06:07:57 27° WSW 06:09:38 50° NW 06:13:15 10° NE visible
28 Jan 3.4 04:34:39 24° E 04:34:39 24° E 04:36:35 10° ENE visible
28 Jan 1.7 06:10:50 28° W 06:12:06 37° NW 06:15:34 10° NNE visible
29 Jan 3.2 04:37:23 25° ENE 04:37:23 25° ENE 04:39:08 10° NE visible
29 Jan 2.1 06:13:33 24° WNW 06:14:36 28° NW 06:17:52 10° NNE visible
30 Jan 3.2 04:40:01 24° NE 04:40:01 24° NE 04:41:35 10° NE visible
30 Jan 2.4 06:16:11 20° NW 06:17:08 23° NNW 06:20:09 10° NNE visible
31 Jan 3.2 04:42:33 22° NE 04:42:33 22° NE 04:44:00 10° NE visible
31 Jan 2.7 06:18:43 17° NW 06:19:43 19° NNW 06:22:26 10° NNE visible
01 Feb 3.3 04:45:01 20° NNE 04:45:01 20° NNE 04:46:21 10° NE visible
01 Feb 2.9 06:21:11 14° NW 06:22:19 16° NNW 06:24:43 10° NNE visible
